Time,TemperatureF,DewpointF,PressureIn,WindDirection,WindDirectionDegrees,WindSpeedMPH,WindSpeedGustMPH,Humidity,HourlyPrecipIn,Conditions,Clouds,dailyrainin,SolarRadiationWatts/m^2,SoftwareType,DateUTC
2013-02-17 00:21:00,18.0,15.0,-100.00,NNW,341,3.0,8.0,88,0.00,,,0.00,0.000000,,2013-02-17 09:21:00,
2013-02-17 00:31:00,18.0,15.0,-100.00,NNW,341,3.0,8.0,88,0.00,,,0.00,0.000000,,2013-02-17 09:31:00,
2013-02-17 00:41:00,18.0,15.0,-100.00,NNW,341,3.0,8.0,88,0.00,,,0.00,0.000000,,2013-02-17 09:41:00,
2013-02-17 00:51:00,18.0,15.0,-100.00,NNW,341,3.0,8.0,88,0.00,,,0.00,0.000000,,2013-02-17 09:51:00,
2013-02-17 01:21:00,18.0,15.0,-100.00,North,359,3.0,7.0,88,0.00,,,0.00,0.000000,,2013-02-17 10:21:00,
2013-02-17 01:31:00,18.0,15.0,-100.00,North,359,3.0,7.0,88,0.00,,,0.00,0.000000,,2013-02-17 10:31:00,
2013-02-17 01:41:00,18.0,15.0,-100.00,North,359,3.0,7.0,88,0.00,,,0.00,0.000000,,2013-02-17 10:41:00,
2013-02-17 01:51:00,18.0,15.0,-100.00,North,359,3.0,7.0,88,0.00,,,0.00,0.000000,,2013-02-17 10:51:00,
2013-02-17 02:21:00,18.0,15.0,-100.00,NW,325,3.0,6.0,87,0.00,,,0.00,0.000000,,2013-02-17 11:21:00,
2013-02-17 02:32:00,18.0,15.0,-100.00,NW,325,3.0,6.0,87,0.00,,,0.00,0.000000,,2013-02-17 11:32:00,
2013-02-17 02:41:00,18.0,15.0,-100.00,NW,325,3.0,6.0,87,0.00,,,0.00,0.000000,,2013-02-17 11:41:00,
2013-02-17 02:52:00,18.0,15.0,-100.00,NW,325,3.0,6.0,87,0.00,,,0.00,0.000000,,2013-02-17 11:52:00,
2013-02-17 03:22:00,18.0,15.0,-100.00,NNW,346,3.0,8.0,87,0.00,,,0.00,0.000000,,2013-02-17 12:22:00,
2013-02-17 03:31:00,18.0,15.0,-100.00,NNW,346,3.0,8.0,87,0.00,,,0.00,0.000000,,2013-02-17 12:31:00,
2013-02-17 03:42:00,18.0,15.0,-100.00,NNW,346,3.0,8.0,87,0.00,,,0.00,0.000000,,2013-02-17 12:42:00,
2013-02-17 03:52:00,18.0,15.0,-100.00,NNW,346,3.0,8.0,87,0.00,,,0.00,0.000000,,2013-02-17 12:52:00,
2013-02-17 04:21:00,18.0,15.0,-100.00,NNW,337,3.0,6.0,88,0.00,,,0.00,0.000000,,2013-02-17 13:21:00,
2013-02-17 04:32:00,18.0,15.0,-100.00,NNW,337,3.0,6.0,88,0.00,,,0.00,0.000000,,2013-02-17 13:32:00,
2013-02-17 04:41:00,18.0,15.0,-100.00,NNW,337,3.0,6.0,88,0.00,,,0.00,0.000000,,2013-02-17 13:41:00,
2013-02-17 04:51:00,18.0,15.0,-100.00,NNW,337,3.0,6.0,88,0.00,,,0.00,0.000000,,2013-02-17 13:51:00,
2013-02-17 05:21:00,19.0,16.0,-100.00,North,351,3.0,6.0,89,0.00,,,0.00,0.000000,,2013-02-17 14:21:00,
2013-02-17 05:32:00,19.0,16.0,-100.00,North,351,3.0,6.0,89,0.00,,,0.00,0.000000,,2013-02-17 14:32:00,
2013-02-17 05:42:00,19.0,16.0,-100.00,North,351,3.0,6.0,89,0.00,,,0.00,0.000000,,2013-02-17 14:42:00,
2013-02-17 05:52:00,19.0,16.0,-100.00,North,351,3.0,6.0,89,0.00,,,0.00,0.000000,,2013-02-17 14:52:00,
2013-02-17 06:21:00,18.0,15.0,-100.00,NNW,335,2.0,6.0,88,0.00,,,-99.99,0.000000,,2013-02-17 15:21:00,
2013-02-17 06:31:00,18.0,15.0,-100.00,NNW,335,2.0,6.0,88,0.00,,,-99.99,0.000000,,2013-02-17 15:31:00,
2013-02-17 06:41:00,18.0,15.0,-100.00,NNW,335,2.0,6.0,88,0.00,,,-99.99,0.000000,,2013-02-17 15:41:00,
2013-02-17 06:52:00,18.0,15.0,-100.00,NNW,335,2.0,6.0,88,0.00,,,-99.99,0.000000,,2013-02-17 15:52:00,
2013-02-17 07:21:00,19.0,16.0,-100.00,North,359,3.0,5.0,87,0.00,,,0.00,0.000000,,2013-02-17 16:21:00,
2013-02-17 07:31:00,19.0,16.0,-100.00,North,359,3.0,5.0,87,0.00,,,0.00,0.000000,,2013-02-17 16:31:00,
2013-02-17 07:41:00,19.0,16.0,-100.00,North,359,3.0,5.0,87,0.00,,,0.00,0.000000,,2013-02-17 16:41:00,
2013-02-17 07:51:00,19.0,16.0,-100.00,North,359,3.0,5.0,87,0.00,,,0.00,0.000000,,2013-02-17 16:51:00,
2013-02-17 08:21:00,19.0,16.0,-100.00,NNE,12,1.0,5.0,88,0.00,,,0.00,0.000000,,2013-02-17 17:21:00,
2013-02-17 08:31:00,19.0,16.0,-100.00,NNE,12,1.0,5.0,88,0.00,,,0.00,0.000000,,2013-02-17 17:31:00,
2013-02-17 08:41:00,19.0,16.0,-100.00,NNE,12,1.0,5.0,88,0.00,,,0.00,0.000000,,2013-02-17 17:41:00,
2013-02-17 08:52:00,19.0,16.0,-100.00,NNE,12,1.0,5.0,88,0.00,,,0.00,0.000000,,2013-02-17 17:52:00,
2013-02-17 09:21:00,19.0,16.0,-100.00,NNE,19,2.0,5.0,88,0.00,,,0.00,0.000000,,2013-02-17 18:21:00,
2013-02-17 09:33:00,19.0,16.0,-100.00,NNE,19,2.0,5.0,88,0.00,,,0.00,0.000000,,2013-02-17 18:33:00,
2013-02-17 09:42:00,19.0,16.0,-100.00,NNE,19,2.0,5.0,88,0.00,,,0.00,0.000000,,2013-02-17 18:42:00,
2013-02-17 09:52:00,19.0,16.0,-100.00,NNE,19,2.0,5.0,88,0.00,,,0.00,0.000000,,2013-02-17 18:52:00,
2013-02-17 10:21:00,20.0,17.0,-100.00,NNE,31,3.0,6.0,87,0.00,,,0.00,3.000000,,2013-02-17 19:21:00,
2013-02-17 10:32:00,20.0,17.0,-100.00,NNE,31,3.0,6.0,87,0.00,,,0.00,3.000000,,2013-02-17 19:32:00,
2013-02-17 10:41:00,20.0,17.0,-100.00,NNE,31,3.0,6.0,87,0.00,,,0.00,3.000000,,2013-02-17 19:41:00,
2013-02-17 10:51:00,20.0,17.0,-100.00,NNE,31,3.0,6.0,87,0.00,,,0.00,3.000000,,2013-02-17 19:51:00,
2013-02-17 11:21:00,22.0,18.0,-100.00,North,7,3.0,7.0,85,0.00,,,0.00,6.000000,,2013-02-17 20:21:00,
2013-02-17 11:32:00,22.0,18.0,-100.00,North,7,3.0,7.0,85,0.00,,,0.00,6.000000,,2013-02-17 20:32:00,
2013-02-17 11:42:00,22.0,18.0,-100.00,North,7,3.0,7.0,85,0.00,,,0.00,6.000000,,2013-02-17 20:42:00,
2013-02-17 11:52:00,22.0,18.0,-100.00,North,7,3.0,7.0,85,0.00,,,0.00,6.000000,,2013-02-17 20:52:00,
2013-02-17 12:21:00,23.0,18.0,-100.00,North,357,3.0,6.0,82,0.00,,,0.00,9.000000,,2013-02-17 21:21:00,
2013-02-17 12:31:00,23.0,18.0,-100.00,North,357,3.0,6.0,82,0.00,,,0.00,9.000000,,2013-02-17 21:31:00,
2013-02-17 12:41:00,23.0,18.0,-100.00,North,357,3.0,6.0,82,0.00,,,0.00,9.000000,,2013-02-17 21:41:00,
2013-02-17 12:52:00,23.0,18.0,-100.00,North,357,3.0,6.0,82,0.00,,,0.00,9.000000,,2013-02-17 21:52:00,
2013-02-17 13:21:00,24.0,19.0,-100.00,North,357,3.0,7.0,81,0.00,,,0.00,9.000000,,2013-02-17 22:21:00,
2013-02-17 13:32:00,24.0,19.0,-100.00,North,357,3.0,7.0,81,0.00,,,0.00,9.000000,,2013-02-17 22:32:00,
2013-02-17 13:41:00,24.0,19.0,-100.00,North,357,3.0,7.0,81,0.00,,,0.00,9.000000,,2013-02-17 22:41:00,
2013-02-17 13:52:00,24.0,19.0,-100.00,North,357,3.0,7.0,81,0.00,,,0.00,9.000000,,2013-02-17 22:52:00,
2013-02-17 14:21:00,24.0,19.0,-100.00,North,11,4.0,9.0,81,0.00,,,0.00,8.000000,,2013-02-17 23:21:00,
2013-02-17 14:31:00,24.0,19.0,-100.00,North,11,4.0,9.0,81,0.00,,,0.00,8.000000,,2013-02-17 23:31:00,
2013-02-17 14:41:00,24.0,19.0,-100.00,North,11,4.0,9.0,81,0.00,,,0.00,8.000000,,2013-02-17 23:41:00,
2013-02-17 14:52:00,24.0,19.0,-100.00,North,11,4.0,9.0,81,0.00,,,0.00,8.000000,,2013-02-17 23:52:00,
2013-02-17 15:22:00,25.0,20.0,-100.00,NNE,16,3.0,7.0,81,0.00,,,0.00,9.000000,,2013-02-18 00:22:00,
2013-02-17 15:31:00,25.0,20.0,-100.00,NNE,16,3.0,7.0,81,0.00,,,0.00,9.000000,,2013-02-18 00:31:00,
2013-02-17 15:41:00,25.0,20.0,-100.00,NNE,16,3.0,7.0,81,0.00,,,0.00,9.000000,,2013-02-18 00:41:00,
2013-02-17 15:52:00,25.0,20.0,-100.00,NNE,16,3.0,7.0,81,0.00,,,0.00,9.000000,,2013-02-18 00:52:00,
2013-02-17 16:21:00,25.0,21.0,-100.00,North,5,3.0,9.0,84,0.00,,,0.00,7.000000,,2013-02-18 01:21:00,
2013-02-17 16:31:00,25.0,21.0,-100.00,North,5,3.0,9.0,84,0.00,,,0.00,7.000000,,2013-02-18 01:31:00,
2013-02-17 16:41:00,25.0,21.0,-100.00,North,5,3.0,9.0,84,0.00,,,0.00,7.000000,,2013-02-18 01:41:00,
2013-02-17 16:51:00,25.0,21.0,-100.00,North,5,3.0,9.0,84,0.00,,,0.00,7.000000,,2013-02-18 01:51:00,
2013-02-17 17:21:00,24.0,21.0,-100.00,North,7,3.0,7.0,88,0.00,,,0.00,3.000000,,2013-02-18 02:21:00,
2013-02-17 17:32:00,24.0,21.0,-100.00,North,7,3.0,7.0,88,0.00,,,0.00,3.000000,,2013-02-18 02:32:00,
2013-02-17 17:41:00,24.0,21.0,-100.00,North,7,3.0,7.0,88,0.00,,,0.00,3.000000,,2013-02-18 02:41:00,
2013-02-17 17:52:00,24.0,21.0,-100.00,North,7,3.0,7.0,88,0.00,,,0.00,3.000000,,2013-02-18 02:52:00,
2013-02-17 18:00:00,24.0,22.0,-100.00,North,357,3.0,6.0,90,-99.99,,,-99.99,,,2013-02-18 03:00:00,
2013-02-17 18:21:00,24.0,22.0,-100.00,North,357,3.0,6.0,90,0.00,,,0.00,0.000000,,2013-02-18 03:21:00,
2013-02-17 18:31:00,24.0,22.0,-100.00,North,357,3.0,6.0,90,0.00,,,0.00,0.000000,,2013-02-18 03:31:00,
2013-02-17 18:42:00,24.0,22.0,-100.00,North,357,3.0,6.0,90,0.00,,,0.00,0.000000,,2013-02-18 03:42:00,
2013-02-17 18:51:00,24.0,22.0,-100.00,North,357,3.0,6.0,90,0.00,,,0.00,0.000000,,2013-02-18 03:51:00,
2013-02-17 19:21:00,24.0,22.0,-100.00,North,349,2.0,6.0,92,0.00,,,0.00,0.000000,,2013-02-18 04:21:00,
2013-02-17 19:32:00,24.0,22.0,-100.00,North,349,2.0,6.0,92,0.00,,,0.00,0.000000,,2013-02-18 04:32:00,
2013-02-17 19:41:00,24.0,22.0,-100.00,North,349,2.0,6.0,92,0.00,,,0.00,0.000000,,2013-02-18 04:41:00,
2013-02-17 19:51:00,24.0,22.0,-100.00,North,349,2.0,6.0,92,0.00,,,0.00,0.000000,,2013-02-18 04:51:00,
2013-02-17 20:21:00,24.0,22.0,-100.00,NNW,338,4.0,8.0,92,0.00,,,0.00,0.000000,,2013-02-18 05:21:00,
2013-02-17 20:31:00,24.0,22.0,-100.00,NNW,338,4.0,8.0,92,0.00,,,0.00,0.000000,,2013-02-18 05:31:00,
2013-02-17 20:41:00,24.0,22.0,-100.00,NNW,338,4.0,8.0,92,0.00,,,0.00,0.000000,,2013-02-18 05:41:00,
2013-02-17 20:51:00,24.0,22.0,-100.00,NNW,338,4.0,8.0,92,0.00,,,0.00,0.000000,,2013-02-18 05:51:00,
2013-02-17 21:21:00,21.0,18.0,-100.00,NNW,347,4.0,14.0,89,0.00,,,0.00,0.000000,,2013-02-18 06:21:00,
2013-02-17 21:31:00,21.0,18.0,-100.00,NNW,347,4.0,14.0,89,0.00,,,0.00,0.000000,,2013-02-18 06:31:00,
2013-02-17 21:41:00,21.0,18.0,-100.00,NNW,347,4.0,14.0,89,0.00,,,0.00,0.000000,,2013-02-18 06:41:00,
2013-02-17 21:51:00,21.0,18.0,-100.00,NNW,347,4.0,14.0,89,0.00,,,0.00,0.000000,,2013-02-18 06:51:00,
2013-02-17 22:21:00,19.0,16.0,-100.00,NW,325,4.0,10.0,86,0.00,,,0.00,0.000000,,2013-02-18 07:21:00,
2013-02-17 22:31:00,19.0,16.0,-100.00,NW,325,4.0,10.0,86,0.00,,,0.00,0.000000,,2013-02-18 07:31:00,
2013-02-17 22:42:00,19.0,16.0,-100.00,NW,325,4.0,10.0,86,0.00,,,0.00,0.000000,,2013-02-18 07:42:00,
2013-02-17 22:51:00,19.0,16.0,-100.00,NW,325,4.0,10.0,86,0.00,,,0.00,0.000000,,2013-02-18 07:51:00,
2013-02-17 23:11:00,17.0,12.0,-100.00,North,4,3.0,10.0,81,-99.99,,,-99.99,,,2013-02-18 08:11:00,
2013-02-17 23:21:00,17.0,12.0,-100.00,North,4,4.0,12.0,81,0.00,,,0.00,0.000000,,2013-02-18 08:21:00,
2013-02-17 23:32:00,17.0,12.0,-100.00,North,4,4.0,12.0,81,0.00,,,0.00,0.000000,,2013-02-18 08:32:00,
2013-02-17 23:41:00,17.0,12.0,-100.00,North,4,4.0,12.0,81,0.00,,,0.00,0.000000,,2013-02-18 08:41:00,
2013-02-17 23:52:00,17.0,12.0,-100.00,North,4,4.0,12.0,81,0.00,,,0.00,0.000000,,2013-02-18 08:52:00,